Regional Weather Roundup
Issued by NWS

Home | Current Version | Previous Version | Text Only | Print | Product List | Glossary Off
Versions: 1 2 3 4 5 6 7 8 9 10 11 12 13 14 15 16 17 18 19 20 21 22 23 24 25 26 27 28 29 30 31 32 33 34 35 36 37 38 39 40 41 42 43 44 45 46 47 48 49 50

000
ASUS43 KLSX 271510
RWRMO

WEATHER SUMMARY FOR MISSOURI
NATIONAL WEATHER SERVICE SPRINGFIELD MO
1000 AM CDT TUE SEP 27 2016

NOTE: "FAIR" INDICATES FEW OR NO CLOUDS BELOW 12,000 FEET WITH NO
       SIGNIFICANT WEATHER AND/OR OBSTRUCTIONS TO VISIBILITY.
       CURRENT SKY AND/OR WEATHER CONDITIONS ARE NOT AVAILABLE FOR
       CHILLICOTHE AND FARMINGTON.

MOZ001>031-035>038-043-044-053-054-271600-
...NORTHERN AND WESTERN MISSOURI...

CITY           SKY/WX    TMP DP  RH WIND       PRES   REMARKS
KANSAS CTY INT SUNNY     63  49  60 W8        30.04S
KANSAS C DTWN    N/A    N/A N/A N/A MISG      30.04S
LEE`S SUMMIT   SUNNY     64  48  56 W10       30.06R
ST JOSEPH      SUNNY     61  51  70 CALM      30.04S
CHILLICOTHE      N/A     63  51  65 W3        30.04S
KIRKSVILLE     SUNNY     62  49  62 W8        30.01S

$$
MOZ066>068-077>081-088>096-101>105-271600-
...SOUTHWEST MISSOURI...

CITY           SKY/WX    TMP DP  RH WIND       PRES   REMARKS
SPRINGFIELD    SUNNY     65  44  46 W12       30.11S
JOPLIN         SUNNY     66  48  52 SW8       30.12F
BRANSON        SUNNY     63  46  55 CALM      30.14S

$$
MOZ032>034-039>042-045>050-055>058-069>072-271600-
...CENTRAL MISSOURI...

CITY           SKY/WX    TMP DP  RH WIND       PRES   REMARKS
COLUMBIA       SUNNY     65  47  52 W12       30.05S
JEFFERSON CITY SUNNY     67  47  48 W8        30.05F
ROLLA          SUNNY     62  47  57 SW13      30.06F
SEDALIA        SUNNY     67  46  47 W12       30.06F
WHITEMAN AFB   MOSUNNY   66  49  53 W10       30.04F
OSAGE BEACH    SUNNY     64  47  53 SW8       30.09S

$$
MOZ051-052-059>065-271600-
...EAST CENTRAL MISSOURI...

CITY           SKY/WX    TMP DP  RH WIND       PRES   REMARKS
ST LOUIS INTL  SUNNY     68  47  46 W12       30.02S
SPIRIT OF STL  SUNNY     65  49  56 W10G18    30.01S
ST CHARLES     SUNNY     65  49  56 W17       30.00F

$$
MOZ072>076-082>087-097>100-106>115-271600-
...SOUTH CENTRAL AND SOUTHEAST MISSOURI...

CITY           SKY/WX    TMP DP  RH WIND       PRES   REMARKS
CAPE GIRARDEAU SUNNY     63  53  70 CALM      30.06S
FARMINGTON     SUNNY     66  48  52 W9        30.07S
POPLAR BLUFF   SUNNY     64  51  62 CALM      30.07S
WEST PLAINS    SUNNY     66  47  50 W7        30.12S

$$




USA.gov is the U.S. government's official web portal to all federal, state and local government web resources and services.